Starlink 30203

operational
NORAD ID: 57498 Int'l Des: 2023-113 Owner: SPXS Country: US Constellation: starlink
LEOCIRCULAR

About Starlink 30203

Description loading...

Live Position

Loading 3D Globe...

Upcoming Passes

Altitude History

Altitude vs Time

uPlot chart will show altitude changes over time

Two-Line Element Set

1 57498U 23113D 26101.91668981 -.00033169 00000-0 -12316-2 0 9990
2 57498 43.0014 188.1625 0001550 261.8817 320.7833 15.26760539 6019
Epoch: Apr 11, 2026 • Age: 8 hours

Current Status

Altitude 484.9 km
Velocity 7.63 km/s
Sub-Earth Point 13.65°N, 67.27°E
Launch Date Aug 7, 2023
Age 2.6 years
Type internet

Technical Details

Classification Payload
Mass 730.00 kg
Dry Mass 700.00 kg
Total Mass 730.00 kg
Length 0.30 m
Diameter 4.10 m
Span 29.00 m
Shape Box + pan
Manufacturer SPXS
Bus Type Starlink V2M
Phase Status In Orbit
Owner/State SPXS/US

Large Constellations

Loading constellations...